Annapolis, MD

1:02 PM EST on February 23, 2017 (GMT -0500)
Annapolis Naval Academy

Weather History for KNAK - November, 2012

Change the Weather History Date:

Friday, November 9, 2012

  Actual Average (KBWI) Record (KBWI)
Temperature  
Mean Temperature 49 °F -  
Max Temperature 57 °F 59 °F 78 °F (1994)
Min Temperature 41 °F 40 °F 25 °F (1967)
Degree Days  
Heating Degree Days 16    
Moisture  
Dew Point 34 °F    
Average Humidity 60    
Maximum Humidity 82    
Minimum Humidity 42    
Precipitation  
Precipitation 0.00 in - - ()
Sea Level Pressure  
Sea Level Pressure 30.17 in    
Wind  
Wind Speed 7 mph (NW)    
Max Wind Speed 12 mph    
Max Gust Speed -    
Visibility 10 miles    
Events      
Averages and records for this station are not official NWS values.
T = Trace of Precipitation, MM = Missing Value Source: NWS Daily Summary

Daily Weather History Graph

Daily Weather History Graph

Search for Another Location

Airport or City:

Trip Planner

Search our weather history database for the weather conditions in past years. The results will help you decide how hot, cold, wet, or windy it might be!

Date:

Astronomy

Nov. 09, 2012 Rise Set
Actual Time 6:42 AM EST 4:56 PM EST
Civil Twilight 6:14 AM EST 5:24 PM EST
Nautical Twilight 5:42 AM EST 5:56 PM EST
Astronomical Twilight 5:11 AM EST 6:27 PM EST
Moon 1:41 AM EST (11/9) 2:06 PM EST (11/9)
Length of Visible Light 11h 10m
Length of Day
10h 13m
Waning Crescent, 23% of the Moon is Illuminated
Nov 9
Waning Crescent
Nov 13
New
Nov 20
First Quarter
Nov 28
Full
Dec 6
Last Quarter

Hourly Weather History & Observations

Time (EST) Temp. Windchill Dew Point Humidity Pressure Visibility Wind Dir Wind Speed Gust Speed Precip Events Conditions
12:54 AM 48.0 °F - 30.9 °F 52% 30.05 in 10.0 mi NW 10.4 mph - N/A   Clear
1:54 AM 46.9 °F - 30.0 °F 52% 30.06 in 10.0 mi WNW 9.2 mph - N/A   Clear
2:54 AM 45.0 °F 41.8 °F 30.0 °F 56% 30.09 in 10.0 mi WNW 5.8 mph - N/A   Clear
3:54 AM 44.1 °F 41.5 °F 30.0 °F 58% 30.10 in 10.0 mi WNW 4.6 mph - N/A   Clear
4:54 AM 43.0 °F 39.5 °F 30.0 °F 60% 30.12 in 10.0 mi WNW 5.8 mph - N/A   Clear
5:54 AM 43.0 °F 38.8 °F 30.9 °F 62% 30.14 in 10.0 mi WNW 6.9 mph - N/A   Clear
6:54 AM 41.0 °F 39.0 °F 30.0 °F 65% 30.17 in 10.0 mi WNW 3.5 mph - N/A   Clear
7:54 AM 44.1 °F 39.5 °F 30.9 °F 60% 30.19 in 10.0 mi WNW 8.1 mph - N/A   Clear
8:54 AM 46.0 °F 40.6 °F 32.0 °F 58% 30.20 in 10.0 mi NW 11.5 mph - N/A   Clear
9:54 AM 48.0 °F - 33.1 °F 56% 30.21 in 10.0 mi NW 10.4 mph - N/A   Clear
10:54 AM 50.0 °F - 33.1 °F 52% 30.22 in 10.0 mi NW 8.1 mph - N/A   Clear
11:54 AM 52.0 °F - 34.0 °F 50% 30.19 in 10.0 mi NW 8.1 mph - N/A   Clear
12:54 PM 54.0 °F - 35.1 °F 49% 30.18 in 10.0 mi NNW 9.2 mph - N/A   Clear
1:54 PM 55.9 °F - 35.1 °F 45% 30.16 in 10.0 mi NW 8.1 mph - N/A   Clear
2:54 PM 57.0 °F - 35.1 °F 44% 30.16 in 10.0 mi NW 9.2 mph - N/A   Clear
3:54 PM 57.9 °F - 35.1 °F 42% 30.16 in 10.0 mi Variable 3.5 mph - N/A   Clear
4:54 PM 55.9 °F - 34.0 °F 44% 30.17 in 10.0 mi WNW 4.6 mph - N/A   Clear
5:54 PM 51.1 °F - 37.9 °F 61% 30.19 in 10.0 mi Calm Calm - N/A   Clear
6:54 PM 48.0 °F - 39.0 °F 71% 30.21 in 10.0 mi Calm Calm - N/A   Clear
7:54 PM 46.9 °F - 39.0 °F 74% 30.21 in 10.0 mi Calm Calm - N/A   Clear
8:54 PM 46.0 °F - 37.9 °F 73% 30.22 in 10.0 mi Calm Calm - N/A   Clear
9:54 PM 45.0 °F - 39.0 °F 80% 30.23 in 9.0 mi Calm Calm - N/A   Clear
10:54 PM 45.0 °F - 39.9 °F 82% 30.23 in 8.0 mi Calm Calm - N/A   Clear
11:54 PM 44.1 °F - 39.0 °F 82% 30.24 in 8.0 mi Calm Calm - N/A   Clear